Dauntless Aviation
Airports South America Uruguay

Hospital Policial

Montevideo, URUGUAY

Airport Info
Suggest Updated Information for this Airport

Location

Latitude / Longitude: 34°52'4"S / 56°9'6"W
  34°52.068'S / 56°9.114'W
  -34.8678 / -56.1519
Satellite photo at:
Airport distance calculator
From:
Weather Reports

METAR

SUAA
7.8nm NW
SUAA 201200Z 03016KT CAVOK 12/06 Q1016
SUMU
8.1nm NE
SUMU 201200Z 01013KT CAVOK 13/05 Q1016 NOSIG

TAF

SUAA
7.8nm NW
TAF SUAA 201130Z 2012/2112 03015KT CAVOK TX23/2018Z TN12/2110Z TEMPO 2014/2022 03015G25KT BECMG 2022/2100 SCT025 BKN080 PROB30 TEMPO 2103/2112 6000 RA SCT015 BKN060 BECMG 2110/2112 15020KT
SUMU
8.1nm NE
TAF SUMU 201130Z 2012/2112 03015KT CAVOK TX23/2018Z TN12/2110Z TEMPO 2014/2022 03015G25KT BECMG 2022/2100 SCT025 BKN080 PROB30 TEMPO 2103/2112 6000 RA SCT015 BKN060 BECMG 2110/2112 15020KT
Safelog

 

Dauntless Aviation

© 2007-2017 Dauntless Aviation, all rights reserved
Information provided via PilotNav comes from a variety of official and unofficial data sources. As errors are possible, do not use PilotNav for primary flight planning purposes. Verify any information that you receive via PilotNav with current and canonical charts and other official documents. The material in this database is subject to database copyrights held by Dauntless Aviation and may not be copied without the express permission of Dauntless Aviation - licenses for use of part of all of this data are available for purchase; enquire via the Dauntless Aviation helpdesk. A number of mechanisms and markers exist in the database to protect against and identify infringement / copyright. Automated queries against this website are stictly prohibited, and all activity is logged and analyzed.